Location: Bourg-d�Oueil
(42.8588°N, 0.4991°E)
Time: 17:20:25
(UTC+00:00)

Okean 1 Rocket - Pass Details

Date: 16 June 2021
Orbit: 607 x 633 km, 82.5° (Epoch: 03 August)

Event Time Altitude Azimuth Distance (km) Brightness Sun altitude
Rises 20:24:05 0° 354° (N) 2,883 7.3 -7.4°
Reaches altitude 10° 20:26:20 10° 358° (N) 1,976 6.3 -7.7°
Maximum altitude 20:30:40 64° 80° (E) 682 3.1 -8.3°
Drops below altitude 10° 20:35:01 10° 163° (SSE) 1,975 5.1 -8.9°
Enters shadow 20:35:26 - 163° (SSE) 2,143 5.3 -8.9°
